Location: NJAA Observatory
(40.6819°N, 74.8979°W)
Time: 02:48:15
(UTC-05:00)

Iridium 4 - Visible Passes

Search period start: 25 February 2018 00:00
Search period end: 07 March 2018 00:00
Orbit: 773 x 776 km, 86.4° (Epoch: 24 February)

Date Brightness Start Highest point End Pass type
(mag) Time Alt. Az. Time Alt. Az. Time Alt. Az.
25 Feb 7.1 03:54:43 26° N 03:54:43 26° N 03:56:55 10° N visible
26 Feb 7.7 03:20:35 19° NNE 03:20:35 19° NNE 03:22:11 10° NNE visible
26 Feb 7.4 05:01:00 15° NW 05:01:00 15° NW 05:02:09 10° NNW visible
27 Feb 8.3 02:46:24 12° NE 02:46:24 12° NE 02:47:00 10° NNE visible
27 Feb 7.3 04:26:49 18° NNW 04:26:49 18° NNW 04:28:19 10° NNW visible
28 Feb 7.5 03:52:37 19° N 03:52:37 19° N 03:54:04 10° N visible
01 Mar 7.9 03:18:22 16° NNE 03:18:22 16° NNE 03:19:29 10° NNE visible
02 Mar 8.3 02:44:07 12° NNE 02:44:07 12° NNE 02:44:32 10° NNE visible
02 Mar 7.7 04:24:31 13° NNW 04:24:31 13° NNW 04:25:12 10° NNW visible
03 Mar 7.7 03:50:15 15° N 03:50:15 15° N 03:51:08 10° N visible
04 Mar 8.0 03:15:57 14° N 03:15:57 14° N 03:16:42 10° N visible
05 Mar 8.3 02:41:38 12° NNE 02:41:38 12° NNE 02:41:57 10° NNE visible
06 Mar 7.9 03:47:43 12° NNW 03:47:43 12° NNW 03:48:07 10° NNW visible
